Weather History for Mount Carmel, IL

Change the Weather History Date:

Wednesday, February 27, 2013

  Actual Average (KLWV) Record (KLWV)
Temperature  
Mean Temperature 36 °F 39 °F  
Max Temperature 39 °F 48 °F 67 °F (2011)
Min Temperature 33 °F 30 °F 6 °F (1993)
Degree Days  
Heating Degree Days 29 26  
Month to date heating degree days 800  
Since 1 July heating degree days 3651  
Cooling Degree Days 0 0  
Month to date cooling degree days 0  
Year to date cooling degree days 0  
Moisture  
Dew Point 33 °F    
Average Humidity 88    
Maximum Humidity 93    
Minimum Humidity 75    
Precipitation  
Precipitation 0.01 in 0.06 in 1.35 in (1977)
Month to date precipitation 1.95  
Year to date precipitation 4.33  
Sea Level Pressure  
Sea Level Pressure 29.73 in    
Wind  
Wind Speed 17 mph (WSW)    
Max Wind Speed 22 mph    
Max Gust Speed 31 mph    
Visibility 9 miles    
Events Rain , Snow    
T = Trace of Precipitation, MM = Missing Value Source: NWS Daily Summary

Daily Weather History Graph

Daily Weather History Graph

Search for Another Location

Airport:

Trip Planner

Search our weather history database for the weather conditions in past years. The results will help you decide how hot, cold, wet, or windy it might be!

Date:

Astronomy

Feb. 27, 2013 Rise Set
Actual Time 6:25 AM CST 5:42 PM CST
Civil Twilight 5:58 AM CST 6:08 PM CST
Nautical Twilight 5:28 AM CST 6:39 PM CST
Astronomical Twilight 4:57 AM CST 7:10 PM CST
Moon 8:00 PM CST (2/27) 7:02 AM CST (2/27)
Length of Visible Light 12h 09m
Length of Day
11h 16m
Waning Gibbous, 96% of the Moon is Illuminated
Feb 27
Waning Gibbous
Mar 4
Last Quarter
Mar 11
New
Mar 19
First Quarter
Mar 27
Full

Hourly Weather History & Observations

Time (CST) Temp. Windchill Dew Point Humidity Pressure Visibility Wind Dir Wind Speed Gust Speed Precip Events Conditions
12:15 AM 39.2 °F 29.6 °F 35.6 °F 87% 29.58 in 10.0 mi West 19.6 mph - N/A   Overcast
12:35 AM 39.2 °F 30.8 °F 35.6 °F 87% 29.59 in 10.0 mi West 15.0 mph - N/A   Overcast
12:55 AM 37.4 °F 27.2 °F 35.6 °F 93% 29.61 in 10.0 mi West 19.6 mph 24.2 mph N/A   Overcast
1:15 AM 37.4 °F 27.5 °F 35.6 °F 93% 29.62 in 10.0 mi West 18.4 mph 26.5 mph N/A   Overcast
1:35 AM 37.4 °F 26.6 °F 35.6 °F 93% 29.63 in 10.0 mi West 21.9 mph 25.3 mph N/A   Overcast
1:55 AM 37.4 °F 26.9 °F 33.8 °F 87% 29.63 in 10.0 mi West 20.7 mph 28.8 mph N/A   Overcast
2:15 AM 37.4 °F 27.2 °F 33.8 °F 87% 29.63 in 10.0 mi West 19.6 mph 24.2 mph N/A   Overcast
2:35 AM 37.4 °F 26.9 °F 33.8 °F 87% 29.63 in 10.0 mi WSW 20.7 mph - N/A   Overcast
2:55 AM 37.4 °F 27.5 °F 33.8 °F 87% 29.64 in 10.0 mi West 18.4 mph 23.0 mph N/A   Overcast
3:15 AM 37.4 °F 28.5 °F 33.8 °F 87% 29.64 in 10.0 mi West 15.0 mph - N/A   Overcast
3:35 AM 37.4 °F 28.5 °F 33.8 °F 87% 29.64 in 10.0 mi West 15.0 mph - N/A   Overcast
3:55 AM 37.4 °F 28.5 °F 33.8 °F 87% 29.64 in 10.0 mi WSW 15.0 mph 19.6 mph N/A   Overcast
4:15 AM 37.4 °F 28.2 °F 33.8 °F 87% 29.66 in 10.0 mi WSW 16.1 mph - N/A   Overcast
4:35 AM 37.4 °F 28.2 °F 33.8 °F 87% 29.66 in 10.0 mi West 16.1 mph - N/A   Overcast
4:55 AM 35.6 °F 26.2 °F 33.8 °F 93% 29.67 in 5.0 mi WSW 15.0 mph - N/A   Overcast
5:15 AM 35.6 °F 24.2 °F 33.8 °F 93% 29.68 in 7.0 mi WSW 21.9 mph 26.5 mph N/A   Overcast
5:35 AM 35.6 °F 25.2 °F 33.8 °F 93% 29.67 in 10.0 mi West 18.4 mph - N/A   Overcast
5:55 AM 35.6 °F 25.2 °F 32.0 °F 87% 29.68 in 10.0 mi WSW 18.4 mph - N/A   Overcast
6:15 AM 35.6 °F 26.2 °F 32.0 °F 87% 29.69 in 10.0 mi WSW 15.0 mph 18.4 mph N/A   Overcast
6:35 AM 35.6 °F 25.9 °F 32.0 °F 87% 29.69 in 10.0 mi WSW 16.1 mph - N/A   Overcast
6:55 AM 35.6 °F 26.2 °F 32.0 °F 87% 29.70 in 10.0 mi WSW 15.0 mph - N/A   Overcast
7:15 AM 35.6 °F 26.2 °F 32.0 °F 87% 29.71 in 10.0 mi WSW 15.0 mph - N/A   Overcast
7:35 AM 35.6 °F 26.2 °F 32.0 °F 87% 29.71 in 10.0 mi WSW 15.0 mph - N/A   Overcast
7:55 AM 35.6 °F 25.9 °F 32.0 °F 87% 29.71 in 10.0 mi WSW 16.1 mph 21.9 mph N/A   Overcast
8:15 AM 35.6 °F 26.2 °F 32.0 °F 87% 29.72 in 10.0 mi WSW 15.0 mph 20.7 mph N/A   Overcast
8:35 AM 35.6 °F 25.9 °F 32.0 °F 87% 29.72 in 10.0 mi WSW 16.1 mph 24.2 mph N/A   Overcast
8:55 AM 35.6 °F 25.2 °F 32.0 °F 87% 29.72 in 10.0 mi WSW 18.4 mph 21.9 mph N/A   Overcast
9:15 AM 35.6 °F 25.5 °F 32.0 °F 87% 29.73 in 10.0 mi WSW 17.3 mph - N/A   Overcast
9:35 AM 37.4 °F 27.8 °F 32.0 °F 81% 29.73 in 10.0 mi WSW 17.3 mph 20.7 mph N/A   Overcast
9:55 AM 37.4 °F 28.2 °F 32.0 °F 81% 29.73 in 10.0 mi WSW 16.1 mph 21.9 mph N/A   Overcast
10:15 AM 37.4 °F 27.8 °F 32.0 °F 81% 29.73 in 10.0 mi WSW 17.3 mph - N/A   Overcast
10:35 AM 37.4 °F 28.9 °F 32.0 °F 81% 29.73 in 10.0 mi WSW 13.8 mph - N/A   Overcast
10:55 AM 37.4 °F 28.2 °F 32.0 °F 81% 29.74 in 10.0 mi WSW 16.1 mph 23.0 mph N/A   Overcast
11:15 AM 37.4 °F 27.5 °F 32.0 °F 81% 29.73 in 10.0 mi WSW 18.4 mph - N/A   Overcast
11:35 AM 37.4 °F 27.5 °F 32.0 °F 81% 29.73 in 10.0 mi WSW 18.4 mph 23.0 mph N/A   Overcast
11:55 AM 37.4 °F 28.5 °F 32.0 °F 81% 29.73 in 10.0 mi WSW 15.0 mph - N/A   Overcast
12:15 PM 37.4 °F 28.2 °F 32.0 °F 81% 29.73 in 10.0 mi WSW 16.1 mph - N/A   Overcast
12:55 PM 39.2 °F 29.6 °F 32.0 °F 75% 29.72 in 10.0 mi West 19.6 mph 23.0 mph N/A   Overcast
1:15 PM 37.4 °F 27.5 °F 32.0 °F 81% 29.73 in 10.0 mi WSW 18.4 mph 26.5 mph N/A Rain Light Rain
1:35 PM 37.4 °F 28.2 °F 33.8 °F 87% 29.73 in 10.0 mi WSW 16.1 mph - N/A Rain Light Rain
1:55 PM 37.4 °F 27.2 °F 33.8 °F 87% 29.73 in 10.0 mi WSW 19.6 mph 25.3 mph N/A   Light Drizzle
2:15 PM 35.6 °F 25.5 °F 33.8 °F 93% 29.74 in 3.0 mi WSW 17.3 mph 20.7 mph 0.01 in Rain Light Rain
2:35 PM 37.4 °F 26.6 °F 35.6 °F 93% 29.74 in 10.0 mi West 21.9 mph - 0.01 in Rain Light Rain
2:55 PM 37.4 °F 27.8 °F 35.6 °F 93% 29.74 in 7.0 mi West 17.3 mph - 0.01 in Rain Light Rain
3:15 PM 37.4 °F 26.6 °F 33.8 °F 87% 29.74 in 10.0 mi West 21.9 mph 31.1 mph N/A Rain Light Rain
3:35 PM 35.6 °F 25.2 °F 33.8 °F 93% 29.75 in 4.0 mi West 18.4 mph 27.6 mph N/A Snow Light Snow
3:55 PM 35.6 °F 27.5 °F 33.8 °F 93% 29.76 in 10.0 mi West 11.5 mph - N/A Rain Light Rain
4:15 PM 35.6 °F 25.5 °F 33.8 °F 93% 29.76 in 5.0 mi West 17.3 mph - N/A Snow Light Snow
4:35 PM 35.6 °F 26.6 °F 33.8 °F 93% 29.76 in 10.0 mi WSW 13.8 mph - N/A Snow Light Snow
4:55 PM 35.6 °F 25.9 °F 33.8 °F 93% 29.77 in 10.0 mi West 16.1 mph - N/A Rain Light Rain
5:15 PM 35.6 °F 25.9 °F 33.8 °F 93% 29.78 in 10.0 mi West 16.1 mph - N/A Snow Light Snow
5:35 PM 35.6 °F 25.9 °F 32.0 °F 87% 29.79 in 10.0 mi West 16.1 mph 21.9 mph N/A   Overcast
5:55 PM 35.6 °F 26.6 °F 32.0 °F 87% 29.80 in 10.0 mi West 13.8 mph - N/A   Overcast
6:15 PM 35.6 °F 26.6 °F 32.0 °F 87% 29.80 in 10.0 mi West 13.8 mph - N/A   Overcast
6:35 PM 35.6 °F 26.6 °F 32.0 °F 87% 29.80 in 10.0 mi West 13.8 mph - N/A Snow Light Snow
6:55 PM 35.6 °F 26.2 °F 32.0 °F 87% 29.81 in 7.0 mi West 15.0 mph - N/A Snow Light Snow
7:15 PM 35.6 °F 25.9 °F 32.0 °F 87% 29.81 in 7.0 mi West 16.1 mph - N/A Snow Light Snow
7:35 PM 35.6 °F 26.2 °F 32.0 °F 87% 29.81 in 7.0 mi West 15.0 mph - N/A   Overcast
8:15 PM 35.6 °F 25.9 °F 32.0 °F 87% 29.81 in 5.0 mi West 16.1 mph - N/A Snow Light Snow
8:35 PM 35.6 °F 26.6 °F 32.0 °F 87% 29.81 in 7.0 mi West 13.8 mph 23.0 mph N/A   Overcast
8:55 PM 35.6 °F 27.1 °F 32.0 °F 87% 29.81 in 7.0 mi West 12.7 mph - N/A   Overcast
9:15 PM 35.6 °F 27.1 °F 32.0 °F 87% 29.82 in 7.0 mi West 12.7 mph - N/A   Overcast
9:35 PM 35.6 °F 26.6 °F 32.0 °F 87% 29.82 in 10.0 mi West 13.8 mph 19.6 mph N/A   Overcast
9:55 PM 35.6 °F 27.5 °F 32.0 °F 87% 29.82 in 10.0 mi West 11.5 mph 17.3 mph N/A   Overcast
10:35 PM 33.8 °F 23.2 °F 32.0 °F 93% 29.82 in 10.0 mi West 17.3 mph - N/A   Overcast
10:55 PM 33.8 °F 24.8 °F 32.0 °F 93% 29.82 in 10.0 mi West 12.7 mph - N/A   Overcast
11:15 PM 33.8 °F 24.3 °F 32.0 °F 93% 29.81 in 10.0 mi West 13.8 mph - N/A   Overcast
11:35 PM 33.8 °F 24.8 °F 32.0 °F 93% 29.81 in 10.0 mi West 12.7 mph - N/A   Overcast
11:55 PM 33.8 °F 24.3 °F 32.0 °F 93% 29.81 in 10.0 mi West 13.8 mph - N/A   Overcast